Estación de El Tambo INIA
Ultimos registro cada 15 minutos 27
| N° | Estación | Fecha / Hora | Temperatura | Humedad | Lluvia | Velocidad | Dirección | Radiación | Presion |
| 27 | El Tambo INIA | 05-09-2026 06:30 | 4,4 | 91,5 | 0 | 1,5 | 71 | 0 | 990 |
| 26 | El Tambo INIA | 05-09-2026 06:15 | 4,5 | 91,4 | 0 | 1,4 | 66 | 0 | 990 |
| 25 | El Tambo INIA | 05-09-2026 06:00 | 4,6 | 90,7 | 0 | 1,3 | 69 | 0 | 990 |
| 24 | El Tambo INIA | 05-09-2026 05:45 | 4,7 | 89,9 | 0 | 1,4 | 67 | 0 | 990 |
| 23 | El Tambo INIA | 05-09-2026 05:30 | 4,9 | 89,3 | 0 | 1,5 | 67 | 0 | 990 |
| 22 | El Tambo INIA | 05-09-2026 05:15 | 5,1 | 88,7 | 0 | 1,6 | 73 | 0 | 990 |
| 21 | El Tambo INIA | 05-09-2026 05:00 | 5,3 | 87,8 | 0 | 1,5 | 68 | 0 | 990 |
| 20 | El Tambo INIA | 05-09-2026 04:45 | 5,6 | 86,4 | 0 | 1,6 | 63 | 0 | 990 |
| 19 | El Tambo INIA | 05-09-2026 04:30 | 5,5 | 86,5 | 0 | 1,5 | 65 | 0 | 990 |
| 18 | El Tambo INIA | 05-09-2026 04:15 | 5,6 | 86,3 | 0 | 2 | 68 | 0 | 990 |
| 17 | El Tambo INIA | 05-09-2026 04:00 | 5,8 | 85,6 | 0 | 1,8 | 63 | 0 | 990 |
| 16 | El Tambo INIA | 05-09-2026 03:45 | 5,9 | 85,1 | 0 | 1,7 | 65 | 0 | 990 |
| 15 | El Tambo INIA | 05-09-2026 03:30 | 6,1 | 84,8 | 0 | 1,2 | 82 | 0 | 990 |
| 14 | El Tambo INIA | 05-09-2026 03:15 | 6,4 | 83,8 | 0 | 0,9 | 87 | 0 | 991 |
| 13 | El Tambo INIA | 05-09-2026 03:00 | 6,6 | 82,8 | 0 | 1 | 88 | 0 | 991 |
| 12 | El Tambo INIA | 05-09-2026 02:45 | 6,8 | 82 | 0 | 1,2 | 89 | 0 | 991 |
| 11 | El Tambo INIA | 05-09-2026 02:30 | 6,9 | 81,4 | 0 | 1,6 | 95 | 0 | 991 |
| 10 | El Tambo INIA | 05-09-2026 02:15 | 7 | 80,8 | 0 | 1,6 | 94 | 0 | 991 |
| 9 | El Tambo INIA | 05-09-2026 02:00 | 7,2 | 80,3 | 0 | 1,5 | 100 | 0 | 991 |
| 8 | El Tambo INIA | 05-09-2026 01:45 | 7,5 | 79,3 | 0 | 2 | 106 | 0 | 991 |
| 7 | El Tambo INIA | 05-09-2026 01:30 | 7,6 | 78 | 0 | 1,9 | 102 | 0 | 991 |
| 6 | El Tambo INIA | 05-09-2026 01:15 | 8 | 76,8 | 0 | 1,8 | 101 | 0 | 991 |
| 5 | El Tambo INIA | 05-09-2026 01:00 | 8,2 | 76 | 0 | 1,9 | 103 | 0 | 992 |
| 4 | El Tambo INIA | 05-09-2026 00:45 | 8,7 | 73,6 | 0 | 1,8 | 99 | 0 | 991 |
| 3 | El Tambo INIA | 05-09-2026 00:30 | 8,9 | 71,4 | 0 | 1,7 | 112 | 0 | 992 |
| 2 | El Tambo INIA | 05-09-2026 00:15 | 8,8 | 72,5 | 0 | 1,9 | 101 | 0 | 992 |
| 1 | El Tambo INIA | 05-09-2026 00:00 | 9,1 | 71,7 | 0 | 2,4 | 114 | 0 | 992 |